,,,PA_Meas_PMT16A,,PR_Meas_QMR101_102,,RH_Meas_QMH101,,SR_Meas_QMS101,,TA_Meas_QMH101,,GenWind,,GenWind,
date,time,status,PA,status,PR,status,RH,status,SR,status,TA,status,DirAvg,status,SpdAvg,
2010-06-28, 00:00:04,VALID,1004.48,VALID,0,VALID,97.8328,VALID,0,VALID,25.2981,VALID,352,VALID,1.26523,
2010-06-28, 00:01:04,VALID,1004.47,VALID,0,VALID,97.7946,VALID,0.100563,VALID,25.2981,VALID,350,VALID,0.630859,
2010-06-28, 00:02:04,VALID,1004.48,VALID,0,VALID,97.7946,VALID,0,VALID,25.2786,VALID,338,VALID,1.4043,
2010-06-28, 00:03:04,VALID,1004.53,VALID,0,VALID,97.6726,VALID,0,VALID,25.2767,VALID,346,VALID,1.10469,
2010-06-28, 00:04:04,VALID,1004.54,VALID,0,VALID,97.6726,VALID,0.100563,VALID,25.3,VALID,349,VALID,1.06211,
2010-06-28, 00:05:04,VALID,1004.55,VALID,0,VALID,97.7183,VALID,0.100563,VALID,25.2592,VALID,353,VALID,0.93125,
2010-06-28, 00:06:04,VALID,1004.51,VALID,0,VALID,97.7717,VALID,0.100563,VALID,25.2806,VALID,342,VALID,1.19062,
2010-06-28, 00:07:04,VALID,1004.56,VALID,0,VALID,97.8251,VALID,0,VALID,25.2592,VALID,350,VALID,1.22461,
2010-06-28, 00:08:04,VALID,1004.55,VALID,0,VALID,97.8938,VALID,0,VALID,25.2183,VALID,340,VALID,0.938281,
2010-06-28, 00:09:04,VALID,1004.56,VALID,0,VALID,97.7717,VALID,0,VALID,25.2183,VALID,353,VALID,0.879687,
2010-06-28, 00:10:04,VALID,1004.59,VALID,0,VALID,97.7946,VALID,0.100563,VALID,25.2592,VALID,353,VALID,0.981641,
2010-06-28, 00:11:04,VALID,1004.57,VALID,0,VALID,97.5505,VALID,0.100563,VALID,25.2397,VALID,350,VALID,0.205859,
2010-06-28, 00:12:04,VALID,1004.58,VALID,0,VALID,97.6039,VALID,0.100563,VALID,25.2202,VALID,4,VALID,0.782031,
2010-06-28, 00:13:04,VALID,1004.55,VALID,0,VALID,97.8404,VALID,0.100563,VALID,25.2007,VALID,4,VALID,0.737109,
2010-06-28, 00:14:04,VALID,1004.56,VALID,0,VALID,97.993,VALID,0,VALID,25.2007,VALID,3,VALID,0.501953,
2010-06-28, 00:15:04,VALID,1004.53,VALID,0,VALID,98.0616,VALID,0.100563,VALID,25.1618,VALID,360,VALID,0,
2010-06-28, 00:16:04,VALID,1004.51,VALID,0,VALID,98.2142,VALID,0,VALID,25.1442,VALID,360,VALID,0.461328,
2010-06-28, 00:17:04,VALID,1004.45,VALID,0,VALID,98.3668,VALID,0,VALID,25.0839,VALID,3,VALID,0.734766,
2010-06-28, 00:18:04,VALID,1004.44,VALID,0,VALID,98.6719,VALID,0.100563,VALID,25.0839,VALID,11,VALID,1.66719,
2010-06-28, 00:19:04,VALID,1004.43,VALID,0,VALID,98.7864,VALID,0.100563,VALID,25.0839,VALID,2,VALID,0.849609,
2010-06-28, 00:20:04,VALID,1004.4,VALID,0,VALID,98.8093,VALID,0,VALID,25.0858,VALID,339,VALID,0.795703,
2010-06-28, 00:21:04,VALID,1004.41,VALID,0,VALID,98.7635,VALID,0,VALID,25.0644,VALID,349,VALID,0.987891,
2010-06-28, 00:22:04,VALID,1004.4,VALID,0,VALID,98.794,VALID,0,VALID,25.0644,VALID,346,VALID,0.744141,
2010-06-28, 00:23:04,VALID,1004.39,VALID,0,VALID,98.8474,VALID,0,VALID,25.0644,VALID,352,VALID,1.21563,
2010-06-28, 00:24:04,VALID,1004.39,VALID,0,VALID,98.8779,VALID,0.100563,VALID,25.0644,VALID,350,VALID,0.909375,
2010-06-28, 00:25:04,VALID,1004.4,VALID,0,VALID,98.8779,VALID,0,VALID,25.0644,VALID,351,VALID,0.755859,
2010-06-28, 00:26:04,VALID,1004.4,VALID,0,VALID,98.9389,VALID,0,VALID,25.1053,VALID,359,VALID,1.10508,
2010-06-28, 00:27:04,VALID,1004.37,VALID,0,VALID,98.8627,VALID,0,VALID,25.1229,VALID,342,VALID,1.02422,
2010-06-28, 00:28:04,VALID,1004.36,VALID,0,VALID,98.7635,VALID,0,VALID,25.1813,VALID,344,VALID,0.934375,
2010-06-28, 00:29:04,VALID,1004.33,VALID,0,VALID,98.3058,VALID,0.100563,VALID,25.2611,VALID,346,VALID,1.05586,
2010-06-28, 00:30:04,VALID,1004.36,VALID,0,VALID,97.6878,VALID,0,VALID,25.2592,VALID,346,VALID,0.853125,
2010-06-28, 00:31:04,VALID,1004.34,VALID,0,VALID,96.9402,VALID,0,VALID,25.3,VALID,334,VALID,0.310547,
2010-06-28, 00:32:04,VALID,1004.32,VALID,0,VALID,96.6274,VALID,0,VALID,25.3,VALID,345,VALID,1.17734,
2010-06-28, 00:33:04,VALID,1004.29,VALID,0,VALID,95.9408,VALID,0,VALID,25.3,VALID,354,VALID,1.25195,
2010-06-28, 00:34:04,VALID,1004.26,VALID,0,VALID,94.8728,VALID,0,VALID,25.339,VALID,345,VALID,0.855469,
2010-06-28, 00:35:04,VALID,1004.25,VALID,0,VALID,94.2472,VALID,0,VALID,25.3195,VALID,340,VALID,1.07187,
2010-06-28, 00:36:04,VALID,1004.22,VALID,0,VALID,93.7361,VALID,0,VALID,25.339,VALID,32,VALID,0.362891,
2010-06-28, 00:37:04,VALID,1004.2,VALID,0,VALID,93.4309,VALID,0,VALID,25.339,VALID,9,VALID,0.221094,
2010-06-28, 00:38:04,VALID,1004.2,VALID,0,VALID,93.9497,VALID,0,VALID,25.3,VALID,360,VALID,0.563672,
2010-06-28, 00:39:04,VALID,1004.18,VALID,0,VALID,94.8651,VALID,0,VALID,25.3,VALID,351,VALID,0.951172,
2010-06-28, 00:40:04,VALID,1004.16,VALID,0,VALID,95.2923,VALID,0,VALID,25.2806,VALID,275,VALID,0.179297,
2010-06-28, 00:41:04,VALID,1004.16,VALID,0,VALID,95.9103,VALID,0,VALID,25.2416,VALID,343,VALID,0.885547,
2010-06-28, 00:42:04,VALID,1004.13,VALID,0,VALID,96.2231,VALID,0,VALID,25.2416,VALID,352,VALID,0.364453,
2010-06-28, 00:43:04,VALID,1004.13,VALID,0,VALID,96.4825,VALID,0,VALID,25.2221,VALID,341,VALID,0.192188,
2010-06-28, 00:44:04,VALID,1004.12,VALID,0,VALID,97.0012,VALID,0,VALID,25.2007,VALID,357,VALID,0.924609,
2010-06-28, 00:45:04,VALID,1004.12,VALID,0,VALID,97.3827,VALID,0,VALID,25.2027,VALID,344,VALID,0.774219,
2010-06-28, 00:46:04,VALID,1004.14,VALID,0,VALID,97.3598,VALID,0.100563,VALID,25.2007,VALID,344,VALID,0.4625,
2010-06-28, 00:47:04,VALID,1004.12,VALID,0,VALID,97.4895,VALID,0,VALID,25.1813,VALID,345,VALID,0.846875,
2010-06-28, 00:48:04,VALID,1004.12,VALID,0,VALID,97.642,VALID,0.100563,VALID,25.1813,VALID,349,VALID,0.779297,
2010-06-28, 00:49:04,VALID,1004.05,VALID,0,VALID,97.7031,VALID,0.100563,VALID,25.1618,VALID,340,VALID,0.900391,
2010-06-28, 00:50:04,VALID,1004.03,VALID,0,VALID,97.8404,VALID,0,VALID,25.1423,VALID,354,VALID,1.41836,
2010-06-28, 00:51:04,VALID,1003.99,VALID,0,VALID,97.6878,VALID,0,VALID,25.1618,VALID,346,VALID,0.822656,
2010-06-28, 00:52:04,VALID,1003.98,VALID,0,VALID,97.5734,VALID,0.100563,VALID,25.1423,VALID,348,VALID,0.804688,
2010-06-28, 00:53:04,VALID,1003.97,VALID,0,VALID,97.8862,VALID,0,VALID,25.1229,VALID,354,VALID,1.06328,
2010-06-28, 00:54:04,VALID,1003.96,VALID,0,VALID,98.0616,VALID,0.100563,VALID,25.1034,VALID,343,VALID,0.719922,
2010-06-28, 00:55:04,VALID,1003.98,VALID,0,VALID,98.2371,VALID,0.100563,VALID,25.1034,VALID,6,VALID,1.55742,
2010-06-28, 00:56:04,VALID,1003.93,VALID,0,VALID,98.1684,VALID,0.100563,VALID,25.1229,VALID,353,VALID,0.738672,
2010-06-28, 00:57:04,VALID,1003.91,VALID,0,VALID,98.199,VALID,0,VALID,25.1229,VALID,336,VALID,1.13516,
2010-06-28, 00:58:04,VALID,1003.92,VALID,0,VALID,98.0921,VALID,0,VALID,25.1423,VALID,351,VALID,1.1332,
2010-06-28, 00:59:05,VALID,1003.89,VALID,0,VALID,97.8633,VALID,0.100563,VALID,25.1813,VALID,340,VALID,1.66445,
2010-06-28, 01:00:05,VALID,1003.84,VALID,0,VALID,97.3445,VALID,0,VALID,25.2007,VALID,341,VALID,0.900391,
2010-06-28, 01:01:05,VALID,1003.82,VALID,0,VALID,96.7952,VALID,0,VALID,25.2221,VALID,347,VALID,1.25234,
2010-06-28, 01:02:05,VALID,1003.8,VALID,0,VALID,95.8874,VALID,0,VALID,25.2416,VALID,351,VALID,0.869922,
2010-06-28, 01:03:05,VALID,1003.79,VALID,0,VALID,95.1703,VALID,0,VALID,25.2202,VALID,344,VALID,1.13594,
2010-06-28, 01:04:05,VALID,1003.79,VALID,0,VALID,95.5365,VALID,0,VALID,25.2221,VALID,348,VALID,1.00469,
2010-06-28, 01:05:05,VALID,1003.77,VALID,0,VALID,95.834,VALID,0,VALID,25.2027,VALID,347,VALID,0.887891,
2010-06-28, 01:06:05,VALID,1003.76,VALID,0,VALID,96.3528,VALID,0,VALID,25.1637,VALID,348,VALID,1.15,
2010-06-28, 01:07:05,VALID,1003.73,VALID,0,VALID,96.6884,VALID,0,VALID,25.1637,VALID,338,VALID,1.0918,
2010-06-28, 01:08:05,VALID,1003.76,VALID,0,VALID,96.78,VALID,0,VALID,25.1637,VALID,346,VALID,0.689844,
2010-06-28, 01:09:05,VALID,1003.74,VALID,0,VALID,96.902,VALID,0,VALID,25.1442,VALID,345,VALID,0.936328,
2010-06-28, 01:10:05,VALID,1003.75,VALID,0,VALID,97.2759,VALID,0,VALID,25.1637,VALID,356,VALID,1.58984,
2010-06-28, 01:11:05,VALID,1003.73,VALID,0,VALID,96.986,VALID,0,VALID,25.1637,VALID,351,VALID,1.4207,
2010-06-28, 01:12:05,VALID,1003.74,VALID,0,VALID,96.6655,VALID,0,VALID,25.2046,VALID,345,VALID,0.699219,
2010-06-28, 01:13:05,VALID,1003.72,VALID,0,VALID,96.0934,VALID,0,VALID,25.1637,VALID,348,VALID,0.707031,
2010-06-28, 01:14:05,VALID,1003.69,VALID,0,VALID,96.2765,VALID,0,VALID,25.1423,VALID,349,VALID,1.32695,
2010-06-28, 01:15:05,VALID,1003.69,VALID,0,VALID,96.78,VALID,0,VALID,25.1442,VALID,350,VALID,1.04961,
2010-06-28, 01:16:05,VALID,1003.68,VALID,0,VALID,96.6274,VALID,0,VALID,25.1637,VALID,348,VALID,1.02305,
2010-06-28, 01:17:05,VALID,1003.67,VALID,0,VALID,96.5435,VALID,0,VALID,25.1637,VALID,354,VALID,0.972656,
2010-06-28, 01:18:05,VALID,1003.65,VALID,0,VALID,96.6808,VALID,0,VALID,25.1637,VALID,357,VALID,0.797656,
2010-06-28, 01:19:05,VALID,1003.62,VALID,0,VALID,96.7723,VALID,0,VALID,25.1637,VALID,349,VALID,1.27148,
2010-06-28, 01:20:05,VALID,1003.61,VALID,0,VALID,96.5435,VALID,0,VALID,25.1637,VALID,345,VALID,0.964453,
2010-06-28, 01:21:05,VALID,1003.6,VALID,0,VALID,96.6198,VALID,0,VALID,25.1442,VALID,356,VALID,0.796094,
2010-06-28, 01:22:05,VALID,1003.55,VALID,0,VALID,96.8334,VALID,0,VALID,25.1637,VALID,354,VALID,1.06562,
2010-06-28, 01:23:05,VALID,1003.55,VALID,0,VALID,96.3528,VALID,0,VALID,25.1832,VALID,351,VALID,0.701953,
2010-06-28, 01:24:05,VALID,1003.53,VALID,0,VALID,96.1163,VALID,0,VALID,25.1637,VALID,359,VALID,1.20156,
2010-06-28, 01:25:05,VALID,1003.55,VALID,0,VALID,96.2765,VALID,0,VALID,25.1637,VALID,351,VALID,0.852734,
2010-06-28, 01:26:05,VALID,1003.52,VALID,0,VALID,96.4748,VALID,0,VALID,25.1229,VALID,342,VALID,0.408594,
2010-06-28, 01:27:05,VALID,1003.53,VALID,0,VALID,96.6579,VALID,0,VALID,25.1248,VALID,344,VALID,0.638672,
2010-06-28, 01:28:05,VALID,1003.45,VALID,0,VALID,96.8258,VALID,0,VALID,25.1053,VALID,352,VALID,0.786719,
2010-06-28, 01:29:05,VALID,1003.49,VALID,0,VALID,97.1843,VALID,0,VALID,25.1053,VALID,347,VALID,0.785547,
2010-06-28, 01:30:05,VALID,1003.45,VALID,0,VALID,97.3598,VALID,0,VALID,25.0877,VALID,353,VALID,0.544922,
2010-06-28, 01:31:05,VALID,1003.43,VALID,0,VALID,97.5886,VALID,0.100563,VALID,25.045,VALID,352,VALID,0.805078,
2010-06-28, 01:32:05,VALID,1003.43,VALID,0,VALID,97.8785,VALID,0,VALID,25.006,VALID,350,VALID,0.802734,
2010-06-28, 01:33:05,VALID,1003.43,VALID,0,VALID,98.2142,VALID,0,VALID,24.9847,VALID,342,VALID,0.882031,
2010-06-28, 01:34:05,VALID,1003.43,VALID,0,VALID,98.3592,VALID,0.100563,VALID,24.9847,VALID,340,VALID,0.597656,
2010-06-28, 01:35:05,VALID,1003.39,VALID,0,VALID,98.4507,VALID,0,VALID,24.9671,VALID,354,VALID,1.09336,
2010-06-28, 01:36:05,VALID,1003.4,VALID,0,VALID,98.5194,VALID,0,VALID,24.9866,VALID,345,VALID,0.588281,
2010-06-28, 01:37:05,VALID,1003.39,VALID,0,VALID,98.5117,VALID,0.100563,VALID,24.9866,VALID,348,VALID,0.707812,
2010-06-28, 01:38:05,VALID,1003.4,VALID,0,VALID,98.4888,VALID,0.100563,VALID,24.9866,VALID,340,VALID,0.573438,
2010-06-28, 01:39:05,VALID,1003.42,VALID,0,VALID,98.5575,VALID,0.100563,VALID,24.9457,VALID,350,VALID,0.758984,
2010-06-28, 01:40:05,VALID,1003.39,VALID,0,VALID,98.6414,VALID,0.100563,VALID,24.9671,VALID,338,VALID,0.753906,
2010-06-28, 01:41:05,VALID,1003.36,VALID,0,VALID,98.6185,VALID,0.100563,VALID,24.9457,VALID,356,VALID,1.10312,
2010-06-28, 01:42:05,VALID,1003.36,VALID,0,VALID,98.6872,VALID,0.100563,VALID,24.9671,VALID,341,VALID,0.865625,
2010-06-28, 01:43:05,VALID,1003.32,VALID,0,VALID,98.733,VALID,0,VALID,24.9476,VALID,349,VALID,1.08125,
2010-06-28, 01:44:05,VALID,1003.31,VALID,0,VALID,98.6491,VALID,0,VALID,24.9671,VALID,352,VALID,0.691406,
2010-06-28, 01:45:05,VALID,1003.27,VALID,0,VALID,98.5117,VALID,0.100563,VALID,24.9457,VALID,339,VALID,0.766406,
2010-06-28, 01:46:05,VALID,1003.28,VALID,0,VALID,98.5117,VALID,0,VALID,24.9671,VALID,352,VALID,0.860156,
2010-06-28, 01:47:05,VALID,1003.22,VALID,0,VALID,98.466,VALID,0,VALID,24.9671,VALID,356,VALID,0.565625,
2010-06-28, 01:48:05,VALID,1003.23,VALID,0,VALID,98.3897,VALID,0,VALID,24.9476,VALID,4,VALID,0.180469,
2010-06-28, 01:49:05,VALID,1003.21,VALID,0,VALID,98.4507,VALID,0,VALID,24.9476,VALID,6,VALID,0.385547,
2010-06-28, 01:50:05,VALID,1003.23,VALID,0,VALID,98.5804,VALID,0,VALID,24.9282,VALID,6,VALID,0.684766,
2010-06-28, 01:51:05,VALID,1003.21,VALID,0,VALID,98.6338,VALID,0,VALID,24.9263,VALID,23,VALID,0,
2010-06-28, 01:52:05,VALID,1003.21,VALID,0,VALID,98.6185,VALID,0,VALID,24.9495,VALID,340,VALID,0,
2010-06-28, 01:53:05,VALID,1003.18,VALID,0,VALID,98.6719,VALID,0,VALID,24.9087,VALID,342,VALID,0,
2010-06-28, 01:54:05,VALID,1003.19,VALID,0,VALID,98.6948,VALID,0,VALID,24.9106,VALID,342,VALID,0,
2010-06-28, 01:55:05,VALID,1003.18,VALID,0,VALID,98.794,VALID,0,VALID,24.8697,VALID,13,VALID,0.7375,
2010-06-28, 01:56:05,VALID,1003.19,VALID,0,VALID,98.9237,VALID,0,VALID,24.8697,VALID,28,VALID,0.208984,
2010-06-28, 01:57:05,VALID,1003.19,VALID,0,VALID,98.9542,VALID,0,VALID,24.8503,VALID,30,VALID,0.832422,
2010-06-28, 01:58:05,VALID,1003.22,VALID,0,VALID,99.0686,VALID,0,VALID,24.8308,VALID,25,VALID,0.410547,
2010-06-28, 01:59:05,VALID,1003.21,VALID,0,VALID,99.1297,VALID,0.100563,VALID,24.8308,VALID,25,VALID,0.327734,
2010-06-28, 02:00:05,VALID,1003.2,VALID,0,VALID,99.2212,VALID,0.100563,VALID,24.8113,VALID,25,VALID,0.367188,
2010-06-28, 02:01:05,VALID,1003.16,VALID,0,VALID,99.2288,VALID,0,VALID,24.8151,VALID,25,VALID,0.725391,
2010-06-28, 02:02:05,VALID,1003.15,VALID,0,VALID,99.3814,VALID,0,VALID,24.7548,VALID,27,VALID,0.329688,
2010-06-28, 02:03:05,VALID,1003.15,VALID,0,VALID,99.4882,VALID,0,VALID,24.7548,VALID,42,VALID,0.849609,
2010-06-28, 02:04:05,VALID,1003.09,VALID,0,VALID,99.7095,VALID,0,VALID,24.7937,VALID,37,VALID,0.580078,
2010-06-28, 02:05:05,VALID,1003.09,VALID,0,VALID,99.679,VALID,0,VALID,24.7937,VALID,20,VALID,1.11211,
2010-06-28, 02:06:05,VALID,1003.09,VALID,0,VALID,99.7247,VALID,0,VALID,24.8132,VALID,360,VALID,0.841016,
2010-06-28, 02:07:05,VALID,1003.11,VALID,0,VALID,99.6484,VALID,0,VALID,24.8327,VALID,22,VALID,0.855859,
2010-06-28, 02:08:05,VALID,1003.11,VALID,0,VALID,99.5569,VALID,0,VALID,24.8327,VALID,20,VALID,1.08203,
2010-06-28, 02:09:05,VALID,1003.1,VALID,0,VALID,99.6179,VALID,0,VALID,24.8327,VALID,27,VALID,1.10273,
2010-06-28, 02:10:05,VALID,1003.11,VALID,0,VALID,99.5798,VALID,0,VALID,24.8522,VALID,38,VALID,0.74375,
2010-06-28, 02:11:05,VALID,1003.1,VALID,0,VALID,99.5187,VALID,0,VALID,24.8522,VALID,33,VALID,0.957812,
2010-06-28, 02:12:05,VALID,1003.11,VALID,0,VALID,99.4272,VALID,0,VALID,24.8113,VALID,19,VALID,0.832812,
2010-06-28, 02:13:05,VALID,1003.1,VALID,0,VALID,99.3891,VALID,0,VALID,24.8327,VALID,27,VALID,0.947266,
2010-06-28, 02:14:05,VALID,1003.11,VALID,0,VALID,99.4348,VALID,0,VALID,24.8113,VALID,12,VALID,1.09297,
2010-06-28, 02:15:05,VALID,1003.09,VALID,0,VALID,99.5874,VALID,0,VALID,24.8308,VALID,36,VALID,0.756641,
2010-06-28, 02:16:05,VALID,1003.06,VALID,0,VALID,99.5874,VALID,0,VALID,24.8503,VALID,5,VALID,1.00391,
2010-06-28, 02:17:05,VALID,1003.1,VALID,0,VALID,99.5264,VALID,0,VALID,24.8892,VALID,359,VALID,0.884375,
2010-06-28, 02:18:05,VALID,1003.1,VALID,0,VALID,99.3357,VALID,0,VALID,24.9495,VALID,15,VALID,0.987109,
2010-06-28, 02:19:05,VALID,1003.07,VALID,0,VALID,99.0992,VALID,0.100563,VALID,24.9476,VALID,43,VALID,0.571484,
2010-06-28, 02:20:05,VALID,1003.1,VALID,0,VALID,98.8245,VALID,0,VALID,24.9885,VALID,22,VALID,0.548047,
2010-06-28, 02:21:05,VALID,1003.1,VALID,0,VALID,98.4965,VALID,0,VALID,24.9671,VALID,20,VALID,0.997266,
2010-06-28, 02:22:05,VALID,1003.05,VALID,0,VALID,98.1608,VALID,0,VALID,25.0274,VALID,15,VALID,1.48242,
2010-06-28, 02:23:05,VALID,1003.04,VALID,0,VALID,97.1919,VALID,0,VALID,25.1053,VALID,19,VALID,1.52891,
2010-06-28, 02:24:05,VALID,1003.04,VALID,0,VALID,94.8728,VALID,0,VALID,25.1618,VALID,34,VALID,0.716016,
2010-06-28, 02:25:05,VALID,1003.06,VALID,0,VALID,92.2027,VALID,0,VALID,25.1832,VALID,15,VALID,0.933594,
2010-06-28, 02:26:05,VALID,1003.09,VALID,0,VALID,92.2255,VALID,0,VALID,25.1813,VALID,45,VALID,1.45352,
2010-06-28, 02:27:05,VALID,1003.1,VALID,0,VALID,91.3253,VALID,0,VALID,25.2611,VALID,1,VALID,1.61484,
2010-06-28, 02:28:05,VALID,1003.09,VALID,0,VALID,90.86,VALID,0,VALID,25.2786,VALID,19,VALID,1.27773,
2010-06-28, 02:29:05,VALID,1003.07,VALID,0,VALID,90.2115,VALID,0,VALID,25.2806,VALID,358,VALID,1.14258,
2010-06-28, 02:30:05,VALID,1003.05,VALID,0,VALID,90.1429,VALID,0,VALID,25.2611,VALID,14,VALID,0.973437,
2010-06-28, 02:31:05,VALID,1003.04,VALID,0,VALID,90.2344,VALID,0,VALID,25.2007,VALID,16,VALID,0.680859,
2010-06-28, 02:32:05,VALID,1003,VALID,0,VALID,90.9439,VALID,0,VALID,25.1442,VALID,356,VALID,0.919531,
2010-06-28, 02:33:05,VALID,1003,VALID,0,VALID,91.7525,VALID,0,VALID,25.1034,VALID,13,VALID,0.511719,
2010-06-28, 02:34:05,VALID,1002.95,VALID,0,VALID,92.1874,VALID,0,VALID,25.0663,VALID,13,VALID,0.418359,
2010-06-28, 02:35:05,VALID,1002.97,VALID,0,VALID,94.3845,VALID,0,VALID,24.9671,VALID,15,VALID,0.827734,
2010-06-28, 02:36:05,VALID,1002.93,VALID,0,VALID,96.4519,VALID,0,VALID,24.93,VALID,15,VALID,0.532031,
2010-06-28, 02:37:05,VALID,1002.92,VALID,0,VALID,97.909,VALID,0.100563,VALID,24.8503,VALID,359,VALID,0.69375,
2010-06-28, 02:38:05,VALID,1002.94,VALID,0,VALID,98.4507,VALID,0,VALID,24.7937,VALID,3,VALID,0.764844,
2010-06-28, 02:39:05,VALID,1002.94,VALID,0,VALID,98.9466,VALID,0,VALID,24.7335,VALID,16,VALID,0.534766,
2010-06-28, 02:40:05,VALID,1002.95,VALID,0,VALID,99.1754,VALID,0,VALID,24.7353,VALID,16,VALID,0.314063,
2010-06-28, 02:41:05,VALID,1002.94,VALID,0,VALID,99.3814,VALID,0,VALID,24.6769,VALID,4,VALID,0.717188,
2010-06-28, 02:42:05,VALID,1002.94,VALID,0,VALID,99.4882,VALID,0,VALID,24.6574,VALID,5,VALID,0.352734,
2010-06-28, 02:43:05,VALID,1002.95,VALID,0,VALID,99.5035,VALID,0,VALID,24.6166,VALID,5,VALID,0,
2010-06-28, 02:44:05,VALID,1002.96,VALID,0,VALID,99.4119,VALID,0,VALID,24.5601,VALID,5,VALID,0.392578,
2010-06-28, 02:45:05,VALID,1002.95,VALID,0,VALID,99.534,VALID,0,VALID,24.5212,VALID,5,VALID,0.285156,
2010-06-28, 02:46:05,VALID,1002.94,VALID,0,VALID,99.6561,VALID,0,VALID,24.4628,VALID,5,VALID,0.0984375,
2010-06-28, 02:47:05,VALID,1002.94,VALID,0,VALID,99.801,VALID,0,VALID,24.4025,VALID,5,VALID,0,
2010-06-28, 02:48:05,VALID,1002.94,VALID,0,VALID,99.9536,VALID,0,VALID,24.3636,VALID,5,VALID,0,
2010-06-28, 02:49:05,VALID,1002.91,VALID,0,VALID,100.053,VALID,0,VALID,24.3459,VALID,5,VALID,0,
2010-06-28, 02:50:05,VALID,1002.9,VALID,0,VALID,100.182,VALID,0,VALID,24.3478,VALID,5,VALID,0,
2010-06-28, 02:51:05,VALID,1002.88,VALID,0,VALID,100.289,VALID,0,VALID,24.307,VALID,5,VALID,0.372266,
2010-06-28, 02:52:05,VALID,1002.87,VALID,0,VALID,100.404,VALID,0,VALID,24.2875,VALID,4,VALID,0.375,
2010-06-28, 02:53:05,VALID,1002.85,VALID,0,VALID,100.472,VALID,0,VALID,24.2681,VALID,4,VALID,0.501172,
2010-06-28, 02:54:05,VALID,1002.85,VALID,0,VALID,100.472,VALID,0,VALID,24.2681,VALID,6,VALID,0.689062,
2010-06-28, 02:55:05,VALID,1002.79,VALID,0,VALID,100.556,VALID,0,VALID,24.3459,VALID,12,VALID,0.453125,
2010-06-28, 02:56:05,VALID,1002.8,VALID,0,VALID,100.633,VALID,0,VALID,24.3265,VALID,10,VALID,0,
2010-06-28, 02:57:05,VALID,1002.83,VALID,0,VALID,100.648,VALID,0,VALID,24.3654,VALID,5,VALID,0,
2010-06-28, 02:58:05,VALID,1002.83,VALID,0,VALID,100.686,VALID,0,VALID,24.4043,VALID,5,VALID,0,
2010-06-28, 02:59:05,VALID,1002.83,VALID,0,VALID,100.694,VALID,0,VALID,24.4257,VALID,5,VALID,0,
2010-06-28, 03:00:05,VALID,1002.83,VALID,0,VALID,100.709,VALID,0,VALID,24.4043,VALID,13,VALID,0,
2010-06-28, 03:01:05,VALID,1002.83,VALID,0,VALID,100.686,VALID,0,VALID,24.4414,VALID,354,VALID,0,
2010-06-28, 03:02:05,VALID,1002.82,VALID,0,VALID,100.724,VALID,0,VALID,24.4804,VALID,2,VALID,0,
2010-06-28, 03:03:05,VALID,1002.82,VALID,0,VALID,100.739,VALID,0,VALID,24.5174,VALID,2,VALID,0,
2010-06-28, 03:04:05,VALID,1002.8,VALID,0,VALID,100.732,VALID,0.100563,VALID,24.5777,VALID,13,VALID,0.957812,
2010-06-28, 03:05:05,VALID,1002.8,VALID,0,VALID,100.716,VALID,0,VALID,24.638,VALID,350,VALID,0.890625,
2010-06-28, 03:06:05,VALID,1002.77,VALID,0,VALID,100.732,VALID,0.100563,VALID,24.6945,VALID,15,VALID,0.701172,
2010-06-28, 03:07:05,VALID,1002.78,VALID,0,VALID,100.716,VALID,0.100563,VALID,24.7919,VALID,21,VALID,0.628125,
2010-06-28, 03:08:05,VALID,1002.78,VALID,0,VALID,100.701,VALID,0,VALID,24.8503,VALID,12,VALID,0,
2010-06-28, 03:09:05,VALID,1002.74,VALID,0,VALID,100.579,VALID,0.100563,VALID,24.8892,VALID,349,VALID,0,
2010-06-28, 03:10:05,VALID,1002.75,VALID,0,VALID,100.442,VALID,0,VALID,24.9087,VALID,350,VALID,0,
2010-06-28, 03:11:05,VALID,1002.76,VALID,0,VALID,100.305,VALID,0,VALID,24.9282,VALID,339,VALID,0,
2010-06-28, 03:12:05,VALID,1002.75,VALID,0,VALID,100.19,VALID,0,VALID,24.9282,VALID,344,VALID,0,
2010-06-28, 03:13:05,VALID,1002.79,VALID,0,VALID,100.099,VALID,0,VALID,24.9263,VALID,348,VALID,0,
2010-06-28, 03:14:05,VALID,1002.74,VALID,0,VALID,99.8773,VALID,0,VALID,24.9282,VALID,349,VALID,0,
2010-06-28, 03:15:05,VALID,1002.76,VALID,0,VALID,99.801,VALID,0,VALID,24.8873,VALID,348,VALID,0,
2010-06-28, 03:16:05,VALID,1002.75,VALID,0,VALID,99.8468,VALID,0,VALID,24.9319,VALID,348,VALID,0,
2010-06-28, 03:17:05,VALID,1002.76,VALID,0,VALID,99.8239,VALID,0,VALID,24.8911,VALID,348,VALID,0,
2010-06-28, 03:18:05,VALID,1002.74,VALID,0,VALID,99.9307,VALID,0,VALID,24.8911,VALID,348,VALID,0,
2010-06-28, 03:19:05,VALID,1002.71,VALID,0,VALID,99.9231,VALID,0,VALID,24.8716,VALID,348,VALID,0,
2010-06-28, 03:20:05,VALID,1002.75,VALID,0,VALID,99.8468,VALID,0,VALID,24.8522,VALID,349,VALID,0,
2010-06-28, 03:21:05,VALID,1002.76,VALID,0,VALID,99.7324,VALID,0,VALID,24.7937,VALID,348,VALID,0,
2010-06-28, 03:22:05,VALID,1002.73,VALID,0,VALID,99.7171,VALID,0,VALID,24.7353,VALID,349,VALID,0,
2010-06-28, 03:23:05,VALID,1002.73,VALID,0,VALID,99.7552,VALID,0,VALID,24.6574,VALID,349,VALID,0,
2010-06-28, 03:24:05,VALID,1002.72,VALID,0,VALID,99.8697,VALID,0,VALID,24.599,VALID,349,VALID,0,
2010-06-28, 03:25:05,VALID,1002.72,VALID,0,VALID,99.9841,VALID,0,VALID,24.5406,VALID,348,VALID,0,
2010-06-28, 03:26:05,VALID,1002.7,VALID,0,VALID,100.144,VALID,0,VALID,24.5017,VALID,348,VALID,0,
2010-06-28, 03:27:05,VALID,1002.68,VALID,0,VALID,100.282,VALID,0,VALID,24.4609,VALID,348,VALID,0,
2010-06-28, 03:28:05,VALID,1002.67,VALID,0,VALID,100.449,VALID,0,VALID,24.5212,VALID,350,VALID,0,
2010-06-28, 03:29:05,VALID,1002.65,VALID,0,VALID,100.518,VALID,0,VALID,24.4822,VALID,350,VALID,0,
2010-06-28, 03:30:05,VALID,1002.65,VALID,0,VALID,100.556,VALID,0,VALID,24.5406,VALID,31,VALID,0.625781,
2010-06-28, 03:31:05,VALID,1002.67,VALID,0,VALID,100.625,VALID,0,VALID,24.4998,VALID,31,VALID,0.376953,
2010-06-28, 03:32:05,VALID,1002.65,VALID,0,VALID,100.579,VALID,0,VALID,24.4414,VALID,31,VALID,0.0804688,
2010-06-28, 03:33:05,VALID,1002.68,VALID,0,VALID,100.549,VALID,0,VALID,24.4628,VALID,26,VALID,0.412109,
2010-06-28, 03:34:05,VALID,1002.71,VALID,0,VALID,100.572,VALID,0,VALID,24.4998,VALID,12,VALID,0.999219,
2010-06-28, 03:35:05,VALID,1002.7,VALID,0,VALID,100.686,VALID,0,VALID,24.4998,VALID,75,VALID,0.241016,
2010-06-28, 03:36:05,VALID,1002.72,VALID,0,VALID,100.663,VALID,0,VALID,24.5212,VALID,18,VALID,0.891016,
2010-06-28, 03:37:05,VALID,1002.71,VALID,0,VALID,100.686,VALID,0.100563,VALID,24.5193,VALID,28,VALID,0.165625,
2010-06-28, 03:38:05,VALID,1002.72,VALID,0,VALID,100.716,VALID,0,VALID,24.5193,VALID,28,VALID,0.557813,
2010-06-28, 03:39:05,VALID,1002.73,VALID,0,VALID,100.724,VALID,0.100563,VALID,24.4998,VALID,28,VALID,0,
2010-06-28, 03:40:04,VALID,1002.7,VALID,0,VALID,100.716,VALID,0,VALID,24.4804,VALID,27,VALID,0,
2010-06-28, 03:41:04,VALID,1002.71,VALID,0,VALID,100.709,VALID,0,VALID,24.4804,VALID,6,VALID,0,
2010-06-28, 03:42:04,VALID,1002.69,VALID,0,VALID,100.701,VALID,0,VALID,24.4998,VALID,6,VALID,0.0183594,
2010-06-28, 03:43:04,VALID,1002.72,VALID,0,VALID,100.747,VALID,0,VALID,24.5193,VALID,7,VALID,0.264844,
2010-06-28, 03:44:04,VALID,1002.74,VALID,0,VALID,100.686,VALID,0.100563,VALID,24.5582,VALID,24,VALID,1.00508,
2010-06-28, 03:45:04,VALID,1002.71,VALID,0,VALID,100.625,VALID,0,VALID,24.6556,VALID,6,VALID,1.60391,
2010-06-28, 03:46:04,VALID,1002.75,VALID,0,VALID,100.701,VALID,0,VALID,24.8522,VALID,24,VALID,0.586328,